Birmingham, United Kingdom

3:58 PM GMT on December 14, 2017 (GMT +0000)
Birmingham

Weather History for EGBB - January, 2013

Change the Weather History Date:

Friday, January 25, 2013

  Actual Average Record
Temperature  
Mean Temperature 28 °F -  
Max Temperature 35 °F 43 °F 57 °F (2016)
Min Temperature 21 °F 32 °F 21 °F (2013)
Degree Days  
Heating Degree Days 37    
Moisture  
Dew Point 27 °F    
Average Humidity 87    
Maximum Humidity 100    
Minimum Humidity 80    
Precipitation  
Precipitation 0.00 in 0.06 in - ()
Sea Level Pressure  
Sea Level Pressure 29.83 in    
Wind  
Wind Speed 9 mph ()    
Max Wind Speed 18 mph    
Max Gust Speed -    
Visibility 5.1 miles    
Events Rain , Snow    
Averages and records for this station are not official NWS values.
T = Trace of Precipitation, MM = Missing Value Source: Averaged Metar Reports

Daily Weather History Graph

Daily Weather History Graph

Search for Another Location

Airport or City:

Trip Planner

Search our weather history database for the weather conditions in past years. The results will help you decide how hot, cold, wet, or windy it might be!

Date:

Astronomy

Jan. 25, 2013 Rise Set
Actual Time 7:58 AM GMT 4:40 PM GMT
Civil Twilight 7:20 AM GMT 5:18 PM GMT
Nautical Twilight 6:38 AM GMT 6:00 PM GMT
Astronomical Twilight 5:58 AM GMT 6:40 PM GMT
Moon 3:22 PM GMT (1/25) 6:30 AM GMT (1/25)
Length of Visible Light 9h 58m
Length of Day
8h 42m
Waxing Gibbous, 97% of the Moon is Illuminated
Jan 25
Waxing Gibbous
Jan 27
Full
Feb 3
Last Quarter
Feb 10
New
Feb 17
First Quarter

Hourly Weather History & Observations

Time (GMT) Temp. Windchill Dew Point Humidity Pressure Visibility Wind Dir Wind Speed Gust Speed Precip Events Conditions
12:20 AM 24.8 °F 16.9 °F 23.0 °F 93% 30.09 in 6.2 mi SSE 6.9 mph - N/A   Mostly Cloudy
12:50 AM 24.8 °F 19.1 °F 23.0 °F 93% 30.06 in 6.2 mi South 4.6 mph - N/A   Mostly Cloudy
1:20 AM 26.6 °F 21.2 °F 23.0 °F 86% 30.06 in 6.2 mi South 4.6 mph - N/A   Mostly Cloudy
1:50 AM 26.6 °F 19.1 °F 23.0 °F 86% 30.06 in 6.2 mi SSE 6.9 mph - N/A   Overcast
2:20 AM 28.4 °F 24.6 °F 24.8 °F 86% 30.09 in 6.2 mi Variable 3.5 mph - N/A   Overcast
2:50 AM 26.6 °F 20.0 °F 23.0 °F 86% 30.06 in 6.2 mi SE 5.8 mph - N/A   Mostly Cloudy
3:50 AM 21.2 °F 12.6 °F 19.4 °F 93% 30.04 in - SSE 6.9 mph - N/A   Clear
4:20 AM 21.2 °F 14.9 °F 19.4 °F 93% 30.04 in 4.3 mi SSE 4.6 mph - N/A   Unknown
4:50 AM 21.2 °F 12.6 °F 21.2 °F 100% 30.04 in 4.3 mi SSE 6.9 mph - N/A   Scattered Clouds
5:20 AM 26.6 °F 20.0 °F 24.8 °F 93% 30.04 in 6.2 mi South 5.8 mph - N/A   Mostly Cloudy
5:50 AM 28.4 °F 19.7 °F 24.8 °F 86% 30.04 in 6.2 mi SE 9.2 mph - N/A   Mostly Cloudy
6:20 AM 28.4 °F 19.7 °F 24.8 °F 86% 30.01 in 6.2 mi SE 9.2 mph - N/A   Mostly Cloudy
6:50 AM 28.4 °F 23.3 °F 24.8 °F 86% 30.01 in 6.2 mi South 4.6 mph - N/A   Mostly Cloudy
7:20 AM 28.4 °F 20.4 °F 24.8 °F 86% 30.01 in 6.2 mi SSE 8.1 mph - N/A   Mostly Cloudy
7:50 AM 28.4 °F 21.2 °F 24.8 °F 86% 30.01 in 6.2 mi SSE 6.9 mph - N/A   Mostly Cloudy
8:20 AM 30.2 °F 22.6 °F 24.8 °F 80% 29.98 in 6.2 mi SSE 8.1 mph - N/A   Mostly Cloudy
8:50 AM 28.4 °F 21.2 °F 24.8 °F 86% 29.98 in 6.2 mi South 6.9 mph - N/A   Scattered Clouds
9:20 AM 30.2 °F 22.6 °F 26.6 °F 86% 29.98 in 6.2 mi South 8.1 mph - N/A   Partly Cloudy
9:50 AM 32.0 °F 24.8 °F 26.6 °F 80% 29.95 in 6.2 mi South 8.1 mph - N/A   Partly Cloudy
10:20 AM 32.0 °F 23.0 °F 28.4 °F 87% 29.95 in - South 11.5 mph - N/A   Clear
10:50 AM 32.0 °F 23.0 °F 28.4 °F 87% 29.95 in - South 11.5 mph - N/A   Clear
11:20 AM 33.8 °F 25.3 °F 28.4 °F 81% 29.92 in - South 11.5 mph - N/A   Clear
11:50 AM 33.8 °F 24.8 °F 28.4 °F 81% 29.92 in - South 12.7 mph - N/A   Clear
12:20 PM 33.8 °F 25.3 °F 28.4 °F 81% 29.92 in - South 11.5 mph - N/A   Clear
12:50 PM 33.8 °F 24.3 °F 28.4 °F 81% 29.89 in - South 13.8 mph - N/A   Clear
1:20 PM 33.8 °F 24.8 °F 28.4 °F 81% 29.86 in - South 12.7 mph - N/A   Clear
1:50 PM 33.8 °F 24.8 °F 28.4 °F 81% 29.83 in 6.2 mi South 12.7 mph - N/A   Partly Cloudy
2:20 PM 33.8 °F 23.2 °F 28.4 °F 81% 29.80 in - South 17.3 mph - N/A   Clear
2:50 PM 33.8 °F 23.5 °F 28.4 °F 81% 29.77 in - South 16.1 mph - N/A   Clear
3:20 PM 33.8 °F 24.3 °F 28.4 °F 81% 29.77 in - South 13.8 mph - N/A   Clear
3:50 PM 33.8 °F 24.3 °F 28.4 °F 81% 29.74 in 6.2 mi South 13.8 mph - N/A   Partly Cloudy
4:20 PM 33.8 °F 23.9 °F 28.4 °F 81% 29.74 in 6.2 mi South 15.0 mph - N/A   Mostly Cloudy
4:50 PM 33.8 °F 24.3 °F 28.4 °F 81% 29.71 in 6.2 mi South 13.8 mph - N/A   Scattered Clouds
5:20 PM 33.8 °F 23.5 °F 28.4 °F 81% 29.68 in 6.2 mi South 16.1 mph - N/A   Scattered Clouds
5:50 PM 33.8 °F 23.9 °F 28.4 °F 81% 29.65 in 6.2 mi South 15.0 mph - N/A   Mostly Cloudy
6:20 PM 33.8 °F 23.2 °F 28.4 °F 81% 29.62 in 5.0 mi South 17.3 mph - N/A Snow Light Snow
6:50 PM 32.0 °F 20.5 °F 30.2 °F 93% 29.62 in 2.5 mi SSE 18.4 mph - N/A Snow Light Snow
7:20 PM 32.0 °F 20.8 °F 30.2 °F 93% 29.59 in 4.3 mi SSE 17.3 mph - N/A Rain , Snow Light Rain
7:50 PM 33.8 °F 23.2 °F 32.0 °F 93% 29.56 in 4.3 mi SSE 17.3 mph - N/A   Overcast
8:20 PM 33.8 °F 23.2 °F 32.0 °F 93% 29.53 in 3.7 mi SSE 17.3 mph - N/A Rain Light Rain
8:50 PM 33.8 °F 23.5 °F 32.0 °F 93% 29.53 in 1.9 mi SSE 16.1 mph - N/A Rain , Snow Light Rain
9:20 PM 33.8 °F 23.2 °F 32.0 °F 93% 29.50 in 2.8 mi SSE 17.3 mph - N/A Rain , Snow Light Rain
9:50 PM 33.8 °F 23.5 °F 33.8 °F 100% 29.47 in 2.8 mi SSE 16.1 mph - N/A Rain , Snow Light Rain
10:20 PM 33.8 °F 23.9 °F 33.8 °F 100% 29.47 in 2.5 mi SSE 15.0 mph - N/A Rain , Snow Light Rain
10:50 PM 33.8 °F 24.3 °F 33.8 °F 100% 29.44 in 2.8 mi SSE 13.8 mph - N/A Rain , Snow Light Rain
11:20 PM 35.6 °F 26.2 °F 33.8 °F 93% 29.44 in 3.1 mi SSE 15.0 mph - N/A Rain , Snow Rain
11:50 PM 35.6 °F 26.6 °F 33.8 °F 93% 29.44 in 3.1 mi SSE 13.8 mph - N/A Rain Light Rain